DAX-0,58 % EUR/USD-0,03 % Gold+0,58 % Öl (Brent)-0,63 %

Far East Energy Shortempfehlung Ziel 0,63Euro-- HV Am 15. Dezember - 500 Beiträge pro Seite


ISIN: US3073251007 | WKN: 551426
0,0010
29.04.16
München
0,00 %
0,0000 EUR

Beitrag schreiben

Begriffe und/oder Benutzer

 

Na dann viel Spaß morgen früh.;)
Gibt es eine Jahresenreally? Ab 15 Dezember gehts los.

USD
0.89-0.07( -7.29%) 21:59:14 0,6721Euro
Open: 0.95 Market Cap: 118,807,000 P/E: 0.00
High: 0.95 52 Week High: 2.45 F P/E:
Low: 0.89 52 Week Low: 0.85 Beta: 65.429
Volume: 596,971 Avg. Volume: 596 EPS: -0.09

OTC
FAR EAST ENERGY CORP. REGISTERED SHARES DL -,01
WKN: 551426 ISIN: US3073251007 Branche: Land: USA

Times & Sales
Uhrzeit Kurs letztes Volumen kumuliert
21:59:14 0,89 2.500 596.971
21:58:36 0,89 5.000 594.471
21:53:57 0,90 500 589.471
21:44:47 0,895 2.000 588.971
21:36:16 0,90 2.500 586.971
21:33:48 0,90 1.000 584.471
20:59:58 0,87 206 583.471
20:30:17 0,88 2.500 583.265
20:30:10 0,88 2.500 580.765
20:30:00 0,9075 100.000 578.265
20:29:59 0,88 2.500 478.265
20:29:45 0,89 2.500 475.765
20:29:30 0,89 2.500 473.265
20:29:28 0,89 2.500 470.765
20:29:24 0,90 2.000 468.265
20:24:09 0,91 600 466.265
20:24:09 0,91 2.000 465.665
20:23:59 0,90 2.000 463.665
20:23:47 0,90 5.000 461.665
20:23:35 0,90 2.500 456.665
20:23:22 0,90 2.500 454.165
20:23:17 0,90 2.500 451.665
20:23:14 0,90 2.500 449.165
20:23:09 0,90 2.500 446.665
20:23:07 0,90 2.500 444.165
20:23:07 0,91 1.300 441.665
20:23:07 0,90 2.500 440.365
20:23:04 0,90 2.500 437.865
20:22:44 0,91 5.500 435.365
20:21:51 0,91 6.200 429.865
20:21:42 0,92 5.700 423.665
20:21:37 0,92 500 417.965
20:21:25 0,92 2.500 417.465
20:20:25 0,92 2.500 414.965
19:58:50 0,93 5.000 412.465
18:57:59 0,935 25.200 407.465
18:57:57 0,93 20.200 382.265
18:57:20 0,935 24.800 362.065
18:57:08 0,93 24.800 337.265
18:56:55 0,935 7.500 312.465
18:56:42 0,93 7.500 304.965
18:56:05 0,918 117.500 297.465
18:55:31 0,93 5.000 179.965
18:55:07 0,93 5.000 174.965
18:54:41 0,93 2.500 169.965
18:51:10 0,93 100 167.465
18:28:39 0,925 184 167.365
18:24:51 0,93 500 167.181
17:58:14 0,92 2.500 166.681
17:58:12 0,92 2.500 164.181
16:51:08 0,92 3.768 161.681
16:31:50 0,91 6.000 157.913
16:31:44 0,905 1.000 151.913
16:31:44 0,905 5.000 150.913
16:31:33 0,91 14.000 145.913
16:31:25 0,905 5.000 131.913
16:31:12 0,905 5.000 126.913
16:31:05 0,905 4.000 121.913
16:27:54 0,91 2.500 117.913
16:27:53 0,91 2.500 115.413
16:27:31 0,92 3.000 112.913
16:27:27 0,915 3.000 109.913
16:24:39 0,92 7.000 106.913
16:24:23 0,915 7.000 99.913
16:24:02 0,91 3.636 92.913
16:14:50 0,92 2.500 89.277
16:14:47 0,92 2.500 86.777
16:13:11 0,93 2.500 84.277
16:10:16 0,92 10.000 81.777
16:09:53 0,915 10.000 71.777
16:09:15 0,92 2.500 61.777
15:58:42 0,91 1.500 59.277
15:54:55 0,905 1.927 57.777
15:54:53 0,905 2.500 55.850
15:53:13 0,92 4.600 53.350
15:53:07 0,92 2.900 48.750
15:52:49 0,92 2.500 45.850
15:46:50 0,93 3.000 43.350
15:44:42 0,92 3.000 40.350
15:44:39 0,93 10.000 37.350
15:41:40 0,93 2.500 27.350
15:41:22 0,93 6.700 24.850
15:36:46 0,95 5.000 18.150
15:34:09 0,95 3.700 13.150
15:33:57 0,94 2.500 9.450
15:33:48 0,94 2.500 6.950
15:33:19 0,95 1.000 4.450
15:33:18 0,95 250 3.450
15:33:08 0,95 500 3.200
15:31:12 0,95 2.500 2.700
15:30:11 0,95 0 200
15:30:11 0,95 200 200


FAR EAST ENERGY CORP. REGISTERED SHARES DL -,01
WKN: 551426 ISIN: US3073251007 Branche: Land: USA

Frankfurt
Times & Sales
Uhrzeit Kurs letztes Volumen kumuliert
18:55:58 0,71 0 39.048
18:55:58 0,71 140 39.048
18:30:34 0,70 1.000 38.908
16:25:36 0,68 1.000 37.908
16:24:07 0,69 250 36.908
16:24:03 0,70 3.400 36.658
16:07:48 0,73 10.000 33.258
15:58:25 0,71 4.000 23.258
15:43:09 0,71 8.450 19.258
15:23:21 0,72 2.101 10.808
12:37:21 0,72 3.000 8.707
10:02:44 0,71 1.407 5.707
09:59:08 0,71 2.000 4.300
09:43:38 0,71 500 2.300
09:03:04 0,71 1.800 1.800



Urges Stockholders to Vote FOR Board of Director Nominees at 2006 Annual Meeting
HOUSTON, Oct. 30 /PRNewswire-FirstCall/ -- Far East Energy Corporation (BULLETIN BOARD: FEEC) announced today that the Company's Notice of Annual Meeting of Stockholders and related Proxy Materials have been filed with the SEC and will be mailed to all stockholders. The Annual Meeting will be held on December 15, 2006 in Houston, Texas.

Anzeige:

The Company also today released a letter to all stockholders. In the letter, the Company notes that it believes it:

* Is on the right track to potentially achieve significant gas
production, and * Has found that its wells have a rare combination of high permeability
coupled with high gas content which generally results in higher gas
production sustainable for a longer period of time.The Company urges all stockholders to vote FOR the Board of Directors' nominees.

The full text of the letter follows:
Dear Stockholder:Please find enclosed our proxy statement and proxy card for the 2006 Annual Meeting of Stockholders of Far East Energy Corporation scheduled to be held on December 15, 2006.

Your participation in the Annual Meeting is very important, no matter how many shares you own. If you do not plan to attend the Meeting in person, please make sure your voice is heard by signing, dating and returning the enclosed white proxy card.

These are exciting times for your Company and we believe that we are on the right track to potentially achieve significant gas production. For example:

* With our first horizontal coalbed methane wells, we believe we have discovered an uncommon and highly desirable combination of high permeability and high gas content. High permeability in conjunction with high gas content and sufficient pressure generally results in higher gas production rates sustainable over a longer period of time.

The gas content and permeability in our initial wells is very high based on well data obtained to date. High permeability allows gas to move with greater ease through the coal and from greater distances to the well, and can result in prolific wells similar to those in America's San Juan Basin or Australia's Fairview Field. High permeability, however, also means that water can move to the well from greater distances and this will cause it to take longer to dewater. The key to making high permeability work to our advantage and to achieving maximum production at the earliest possible date is to drill a pattern of additional wells in the area of our first wells as rapidly as possible.

* The Company began drilling its fourth horizontal well in September, locating that well close to the Number 1 and 3 wells as part of the cluster being developed for dewatering and production purposes. This well is nearing completion.

* Australia's Fairview Field, which is known in the industry to be a very productive field for coalbed methane production, may be a good analog to what we have discovered in our Shouyang Area. The Fairview Field's wells were steadily drilled in a pattern around the first wells, which resulted in enhanced dewatering and wells that initially came in at a slower rate and in lower amounts because of the lengthier dewatering period, steadily ramped up to high rates sustained over many years. Of course, until we achieve sustained production from our wells, we cannot be sure if the performance of our wells will mirror that of the Fairview Field.

We also recently announced that we completed a common stock placement resulting in approximately $17 million of gross proceeds. The financing was a part of our Board's capital raising plan that began in the early summer of 2006. This additional capital is intended to finance the drilling of a number of additional wells near the promising area of our Shouyang Block, as well as the drilling of wells required to retain our acreage position in the Qinnan Block of the Shanxi Province and in Yunnan Province.

We are pleased to report that this financing was completed at a discount to the market price of our common stock at the time of pricing of only 1.6% with no warrants attached. Additionally, we look forward to the time when our capital needs may be met by debt type financing.

Our nominees for the Board of Directors and our management team are well qualified to continue to capitalize on the high potential of our coal bed methane projects in China. They are highly experienced in gas exploration and production, here and in China, and will work together closely with senior management to develop and implement the Company's drilling, gas sales and China government relations strategy designed to build long-term value for all stockholders.

In that regard, we are pleased to announce that C.P. Chiang has agreed to serve on our Board, if elected at the Annual Meeting. Mr. Chiang most recently served as the China Project Manager/Country Manager of Burlington Resources until his retirement in 2006. In that position he was responsible for managing the operations and activities of Burlington Resources in China and worked closely and negotiated with various Chinese governmental organizations. He has also worked for various other oil and gas companies, including British Gas E&P, Inc., Tenneco Oil Production and Exploration and Exxon Oil Company, now known as Exxon Mobil Corporation.

Collectively, our nominees have over 170 years of experience in the oil and gas industry.

We urge you to vote FOR the Board of Directors nominees by signing and
submitting the WHITE proxy card TODAY.Thank you for your continued support. If you have any questions or require any assistance voting your shares, please contact our proxy solicitor, Innisfree M&A Incorporated, toll-free at 1.888.750.5834.

Sincerely, Michael R. McElwrath
President and Chief Executive Officer
About Far East EnergyBased in Houston, Texas, with offices in Beijing, Kunming, and Taiyuan City, China, Far East Energy Corporation is focused on the acquisition of, and exploration for, coalbed methane in China through its agreements with ConocoPhillips and China United Coalbed Methane Company, Ltd. (CUCBM).

China Acreage Overview

The Shouyang and Qinnan Blocks are part of the 4,280 square kilometer (1,057,650 acres) coalbed methane (CBM) project in Shanxi Province that Far East Energy holds under farmouts from ConocoPhillips. Including its 1,073 square kilometer project in Yunnan Province, the coalbed methane concessions of Far East Energy contain a land mass slightly larger than the State of Delaware.

Far East Energy is scheduled to hold its 2006 annual meeting of stockholders on December 15, 2006, and filed a definitive proxy statement with the Securities and Exchange Commission on October 27, 2006 in connection with the meeting. It is anticipated that the proxy statement will first be mailed to stockholders on or about October 31, 2006. Our stockholders are strongly advised to read the proxy statement and the accompanying WHITE proxy card and any other relevant documents filed with the Securities and Exchange Commission when they become available because they will contain important information. Stockholders will be able to obtain the proxy statement as well as any amendments or supplements to the proxy statement and any other documents that we file with the Securities and Exchange Commission for free on the Securities and Exchange Commission's website. Their website is located at http://www.sec.gov/. Copies of the proxy statement and any amendments and supplements to the proxy statement will also be available for free at our website at http://www.fareastenergy.com/ or by writing to the Secretary of Far East Energy, 400 N. Sam Houston Parkway East, Suite 205, Houston, Texas 77060. You can also request copies of the proxy materials, when they become available, from our proxy solicitor, Innisfree M&A Incorporated. Their toll-free number is 1-888- 750-5834. Detailed information regarding the names, affiliations and interests of individuals who may be deemed participants in the solicitation of proxies of our stockholders is available on Exhibit A to the Definitive Proxy Statement on Schedule 14A we filed with the Securities and Exchange Commission on October 27, 2006.

Statements contained in this press release that state the intentions, hopes, beliefs, anticipations, expectations or predictions of the future of Far East Energy Corporation and its management are forward-looking statements within the meaning of Section 27A of the Securities Act of 1933, as amended, and Section 21E of the Securities Exchange Act of 1934, as amended. It is important to note that any such forward-looking statements are not guarantees of future performance and involve a number of risks and uncertainties. Actual results could differ materially from those projected in such forward-looking statements. Factors that could cause actual results to differ materially from those projected in such forward-looking statements include: the preliminary nature of well data, including permeability and gas content, and commercial viability of the wells; risk and uncertainties associated with exploration, development and production of oil and gas; drilling and production risks; our lack of operating history; limited and potentially inadequate cash resources; expropriation and other risks associated with foreign operations; anticipated pipeline construction and transportation of gas; matters affecting the oil and gas industry generally; lack of availability of oil and gas field goods and services; environmental risks; changes in laws or regulations affecting our operations, as well as other risks described in our Annual Report on Form 10- K, Quarterly Reports filed on Form 10-Q, and subsequent filings with the Securities and Exchange Commission.

Contact: Warren Laird/ Senior Account Executive
Warren@ctaintegrated.com
Bill Conboy/ Vice President
Bill@ctaintegrated.com
Shirley Thompson, President/Co-founder
shirley@ctaintegrated.com
CTA Integrated Communications
303-665-4200
Release No. 2006-12Web site: http://www.fareastenergy.com/
Antwort auf Beitrag Nr.: 25.841.919 von Kursbrecher am 30.11.06 22:48:06Also ich kann nur eines sagen. Ich hab im internet noch nie einen grösseren Mist gelessen wie von dir Kursbrecher erlich.


Glaubst du den Blödsinn eigentlich selber noch den du verzapfst???
Antwort auf Beitrag Nr.: 25.846.028 von system33 am 01.12.06 06:23:04Guten Morgen

Wie gesagt 0,63 sind möglich..... 4 % in einer Stunde sind auch nicht schlecht:lick:

Geld 0,67 20.000
Brief 0,72 20.000


10:01:37 0,68 6.000 16.725
09:47:42 0,68 575 10.725
09:44:43 0,68 1.400 10.150
09:23:57 0,68 5.750 8.750
09:23:47 0,69 3.000 3.000
09:08:27 0,70 0 0



FAR EAST ENERGY Aktueller Kurs (Frankfurt, 01.12.2006 09:47)
Letzter Kurs: 0,68 WKN: 551426
Veränd. abs.: -0,030 Symbol: FEN
Veränd. in %: -4,23 % ISIN: US3073251007
Antwort auf Beitrag Nr.: 25.849.919 von Graf_Voelsing am 01.12.06 11:27:51Richtig erkannt, da wird gemauert.:rolleyes:
Antwort auf Beitrag Nr.: 25.851.589 von Kursbrecher am 01.12.06 12:38:03Die 0,67 sind nur noch eine Frage von Stunden oder gar Minuten...

12:47:08 0,68 1.100 31.625
12:05:41 0,68 6.000 30.525
11:42:27 0,68 2.000 24.525
11:37:38 0,69 800 22.525
10:30:20 0,70 5.000 21.725
10:01:37 0,68 6.000 16.725
09:47:42 0,68 575 10.725
09:44:43 0,68 1.400 10.150
09:23:57 0,68 5.750 8.750
09:23:47 0,69 3.000 3.000
09:08:27 0,70 0 0
Antwort auf Beitrag Nr.: 25.852.644 von Kursbrecher am 01.12.06 13:24:47Eine Talfahrt die ist Lustig, eine Talfahrt die ist schön.:laugh::laugh::laugh:

14:22:27 0,68 800 32.575
13:39:12 0,68 150 31.775
12:47:08 0,68 1.100 31.625
12:05:41 0,68 6.000 30.525
11:42:27 0,68 2.000 24.525
11:37:38 0,69 800 22.525
10:30:20 0,70 5.000 21.725
10:01:37 0,68 6.000 16.725
09:47:42 0,68 575 10.725
09:44:43 0,68 1.400 10.150
09:23:57 0,68 5.750 8.750
09:23:47 0,69 3.000 3.000
09:08:27 0,70 0 0
Antwort auf Beitrag Nr.: 25.854.634 von Graf_Voelsing am 01.12.06 14:59:40Noch 26 minuten:p
Antwort auf Beitrag Nr.: 25.854.788 von Kursbrecher am 01.12.06 15:04:52So lange musst Du nicht warten. Ruf doch einfach 110 an.
Antwort auf Beitrag Nr.: 25.854.832 von Graf_Voelsing am 01.12.06 15:06:22Jetzt bereuhige dich mal, dein Geld ist nicht weg, es hat nur ein anderer.
Der Graf hat noch Shares, ich lach mich schlapp... :laugh::laugh::laugh::D
Antwort auf Beitrag Nr.: 25.854.990 von Kursbrecher am 01.12.06 15:10:46Einsteigen nicht vergessen, sonst fährt der Zug ohne euch los.:D:laugh::laugh::laugh:

Da gehen ganz schöne Packete in Old Germany

FAR EAST ENERGY CORP (FEEC)0.9
+0.01( +1.12%)
Open: 0.9 Market Cap: 110,144,000 P/E: 0.00
High: 0.9 52 Week High: 2.45 F P/E:
Low: 0.9 52 Week Low: 0.85 Beta: 65.429
Volume: 11,000 Avg. Volume: 11 EPS: -0.09
Insider trading data for FEEC Browse FEEC SEC Edgar filings
Antwort auf Beitrag Nr.: 25.854.990 von Kursbrecher am 01.12.06 15:10:46Klar besitze ich shares.;)
Antwort auf Beitrag Nr.: 25.861.576 von Graf_Voelsing am 01.12.06 17:35:38Dann hoffe ich für dich, das du unter 0,70 gut aufgestockt hast,
diese Region wird nämlich bald Vergangenheit sein.
Ein besseres Geschenk kann man sich garnicht machen.:D
Antwort auf Beitrag Nr.: 25.876.233 von Kursbrecher am 01.12.06 23:56:52Tja ob sich der Short auszahlen wird?? Wer weiss das schon:D

Xetra 0,66 EUR -0,09 -12,00% 05.12. 13:34:47 0,66 n.a. n.a. n.a. 1.500 1.500

FAR EAST ENERGY CORP (FEEC)0.94
-0.01( -1.05%)

Open: 0.94 Market Cap: 117,569,000 P/E: 0.00
High: 0.94 52 Week High: 2.45 F P/E:
Low: 0.94 52 Week Low: 0.85 Beta: 65.429
Volume: 7,500 Avg. Volume: 7 EPS: -0.09
Insider trading data for FEEC Browse FEEC SEC Edgar filings

--------------------------------------------------------------------------------
FAR EAST ENERGY CORP (FEEC)0.94
-0.01( -1.05%)

Open: 0.94 Market Cap: 117,569,000 P/E: 0.00
High: 0.94 52 Week High: 2.45 F P/E:
Low: 0.92 52 Week Low: 0.85 Beta: 65.429
Volume: 28,000 Avg. Volume: 28 EPS: -0.09
Insider trading data for FEEC Browse FEEC SEC Edgar filings

--------------------------------------------------------------------------------


Beitrag zu dieser Diskussion schreiben


Es handelt sich hier um eine ältere Diskussion, daher ist das Schreiben in dieser Diskussion nicht mehr möglich. Bitte eröffnen Sie hier eine neue Diskussion.